Weather History for KSNA - March, 2014

Change the Weather History Date:

Tuesday, March 25, 2014

  Actual Average Record
Temperature  
Mean Temperature 62 °F 60 °F  
Max Temperature 65 °F 68 °F 72 °F (2013)
Min Temperature 58 °F 52 °F 48 °F (2002)
Degree Days  
Heating Degree Days 3 5  
Month to date heating degree days 50 149  
Since 1 July heating degree days 540 1055  
Cooling Degree Days 0 0  
Month to date cooling degree days 20 0  
Year to date cooling degree days 47 8  
Growing Degree Days 12 (Base 50)    
Moisture  
Dew Point 52 °F    
Average Humidity 72    
Maximum Humidity 80    
Minimum Humidity 63    
Precipitation  
Precipitation T in 0.03 in 0.79 in (2012)
Month to date precipitation 0.70 1.74  
Year to date precipitation 2.27 7.60  
Since 1 July precipitation 3.32  
Snow  
Snow 0.00 in - - ()
Month to date snowfall 0.0  
Year to date snowfall 0.0  
Since 1 July snowfall 0.0  
Snow Depth 0.00 in    
Sea Level Pressure  
Sea Level Pressure 29.97 in    
Wind  
Wind Speed 3 mph (WSW)    
Max Wind Speed 12 mph    
Max Gust Speed 14 mph    
Visibility 10 miles    
Events      
T = Trace of Precipitation, MM = Missing Value Source: NWS Daily Summary

Daily Weather History Graph

Daily Weather History Graph

Search for Another Location

Airport or City:

Trip Planner

Search our weather history database for the weather conditions in past years. The results will help you decide how hot, cold, wet, or windy it might be!

Date:

Astronomy

Mar. 25, 2014 Rise Set
Actual Time 6:48 AM PDT 7:06 PM PDT
Civil Twilight 6:23 AM PDT 7:31 PM PDT
Nautical Twilight 5:54 AM PDT 8:01 PM PDT
Astronomical Twilight 5:24 AM PDT 8:30 PM PDT
Moon 2:59 AM PDT (3/25) 1:56 PM PDT (3/25)
Length of Visible Light 13h 08m
Length of Day
12h 18m
Waning Crescent, 31% of the Moon is Illuminated
Mar 25
Waning Crescent
Mar 30
New
Apr 7
First Quarter
Apr 15
Full
Apr 22
Last Quarter

Hourly Weather History & Observations

Time (PDT) Temp. Dew Point Humidity Pressure Visibility Wind Dir Wind Speed Gust Speed Precip Events Conditions
12:53 AM 60.1 °F 53.1 °F 78% 30.04 in 10.0 mi Calm Calm - N/A   Overcast
1:53 AM 60.1 °F 53.1 °F 78% 30.02 in 10.0 mi Calm Calm - N/A   Overcast
2:53 AM 60.1 °F 53.1 °F 78% 30.00 in 10.0 mi SW 4.6 mph - N/A   Overcast
3:53 AM 59.0 °F 53.1 °F 81% 29.99 in 10.0 mi Calm Calm - N/A   Overcast
4:15 AM 59.0 °F 53.6 °F 82% 29.98 in 10.0 mi SSW 3.5 mph - N/A   Overcast
4:53 AM 59.0 °F 53.1 °F 81% 29.98 in 10.0 mi SW 3.5 mph - N/A   Overcast
5:53 AM 59.0 °F 53.1 °F 81% 29.99 in 8.0 mi Calm Calm - 0.00 in   Overcast
6:01 AM 59.0 °F 53.6 °F 82% 29.99 in 10.0 mi SSW 3.5 mph - N/A   Overcast
6:53 AM 59.0 °F 54.0 °F 83% 30.00 in 10.0 mi Calm Calm - 0.00 in   Overcast
7:53 AM 59.0 °F 53.1 °F 81% 30.00 in 9.0 mi Calm Calm - N/A   Overcast
8:53 AM 59.0 °F 54.0 °F 83% 30.01 in 10.0 mi Calm Calm - N/A   Overcast
9:01 AM 59.0 °F 53.6 °F 82% 30.01 in 8.0 mi Calm Calm - N/A   Overcast
9:42 AM 60.8 °F 53.6 °F 77% 30.00 in 9.0 mi Calm Calm - 0.00 in   Overcast
9:53 AM 60.1 °F 54.0 °F 80% 30.01 in 8.0 mi Calm Calm - 0.00 in   Overcast
10:53 AM 60.1 °F 53.1 °F 78% 30.02 in 10.0 mi Calm Calm - N/A   Overcast
11:53 AM 61.0 °F 52.0 °F 72% 30.01 in 10.0 mi West 4.6 mph - N/A   Overcast
12:53 PM 62.1 °F 52.0 °F 70% 29.98 in 10.0 mi SSW 3.5 mph - N/A   Mostly Cloudy
1:53 PM 63.0 °F 52.0 °F 67% 29.99 in 10.0 mi WSW 8.1 mph - N/A   Overcast
2:53 PM 63.0 °F 52.0 °F 67% 29.95 in 10.0 mi SW 8.1 mph - N/A   Overcast
3:46 PM 64.4 °F 51.8 °F 64% 29.94 in 10.0 mi SW 10.4 mph - N/A   Overcast
3:53 PM 64.0 °F 52.0 °F 65% 29.95 in 10.0 mi WSW 6.9 mph - N/A   Mostly Cloudy
4:11 PM 62.6 °F 51.8 °F 68% 29.94 in 10.0 mi SW 8.1 mph - N/A   Mostly Cloudy
4:53 PM 63.0 °F 52.0 °F 67% 29.94 in 10.0 mi West 8.1 mph - N/A   Mostly Cloudy
5:00 PM 62.6 °F 51.8 °F 68% 29.93 in 10.0 mi West 9.2 mph - N/A   Overcast
5:09 PM 62.6 °F 51.8 °F 68% 29.93 in 10.0 mi WSW 6.9 mph - N/A   Overcast
5:53 PM 62.1 °F 51.1 °F 67% 29.91 in 10.0 mi Variable 4.6 mph - N/A   Mostly Cloudy
6:53 PM 61.0 °F 52.0 °F 72% 29.92 in 10.0 mi WSW 5.8 mph - N/A   Overcast
7:53 PM 60.1 °F 52.0 °F 75% 29.92 in 10.0 mi WSW 3.5 mph - N/A   Overcast
8:53 PM 60.1 °F 51.1 °F 72% 29.93 in 10.0 mi Calm Calm - N/A   Mostly Cloudy
9:53 PM 59.0 °F 52.0 °F 78% 29.94 in 10.0 mi SW 3.5 mph - N/A   Mostly Cloudy
10:03 PM 59.0 °F 51.8 °F 77% 29.95 in 10.0 mi WSW 3.5 mph - N/A   Mostly Cloudy
10:16 PM 59.0 °F 51.8 °F 77% 29.95 in 10.0 mi Calm Calm - N/A   Mostly Cloudy
10:53 PM 60.1 °F 50.0 °F 69% 29.95 in 10.0 mi West 3.5 mph - N/A   Mostly Cloudy
11:06 PM 60.8 °F 50.0 °F 68% 29.94 in 10.0 mi Calm Calm - N/A   Overcast
11:26 PM 60.8 °F 50.0 °F 68% 29.94 in 10.0 mi SW 4.6 mph - N/A   Overcast
11:53 PM 60.1 °F 51.1 °F 72% 29.94 in 10.0 mi SW 3.5 mph - N/A   Mostly Cloudy